TimeEST,TemperatureF,Dew PointF,Humidity,Sea Level PressureIn,VisibilityMPH,Wind Direction,Wind SpeedMPH,Gust SpeedMPH,PrecipitationIn,Events,Conditions,WindDirDegrees,DateUTC
12:52 AM,48.9,48.0,97,29.80,10.0,South,10.4,-,0.01,,Overcast,190,2013-02-11 05:52:00
1:31 AM,50.0,48.2,94,29.80,10.0,SSW,11.5,-,N/A,,Overcast,200,2013-02-11 06:31:00
1:52 AM,51.1,48.9,92,29.79,10.0,SSW,15.0,20.7,N/A,,Overcast,210,2013-02-11 06:52:00
2:52 AM,52.0,50.0,93,29.78,10.0,SSW,16.1,23.0,0.00,,Mostly Cloudy,200,2013-02-11 07:52:00
3:52 AM,52.0,48.9,89,29.78,10.0,SSW,11.5,-,N/A,,Scattered Clouds,210,2013-02-11 08:52:00
4:30 AM,51.8,48.2,88,29.78,10.0,SSW,11.5,-,N/A,,Mostly Cloudy,200,2013-02-11 09:30:00
4:52 AM,52.0,48.0,86,29.78,10.0,SSW,10.4,21.9,N/A,,Scattered Clouds,210,2013-02-11 09:52:00
5:52 AM,51.1,46.9,86,29.78,10.0,SSW,12.7,-,N/A,,Scattered Clouds,210,2013-02-11 10:52:00
6:52 AM,51.1,43.0,74,29.80,10.0,SW,12.7,20.7,N/A,,Partly Cloudy,230,2013-02-11 11:52:00
7:52 AM,48.9,37.0,64,29.82,10.0,WSW,15.0,24.2,N/A,,Partly Cloudy,240,2013-02-11 12:52:00
8:52 AM,48.0,32.0,54,29.86,10.0,WSW,16.1,34.5,N/A,,Scattered Clouds,250,2013-02-11 13:52:00
9:52 AM,48.0,30.0,50,29.88,10.0,WSW,21.9,33.4,N/A,,Partly Cloudy,240,2013-02-11 14:52:00
10:52 AM,46.9,28.9,50,29.90,10.0,WSW,24.2,38.0,N/A,,Partly Cloudy,240,2013-02-11 15:52:00
11:52 AM,48.0,30.9,52,29.92,10.0,West,24.2,32.2,N/A,,Scattered Clouds,260,2013-02-11 16:52:00
1:52 PM,46.9,27.0,46,29.91,10.0,WSW,25.3,32.2,N/A,,Scattered Clouds,250,2013-02-11 18:52:00
2:52 PM,48.0,27.0,44,29.91,10.0,WSW,20.7,33.4,N/A,,Scattered Clouds,250,2013-02-11 19:52:00
3:52 PM,48.0,27.0,44,29.93,10.0,West,17.3,38.0,N/A,,Scattered Clouds,260,2013-02-11 20:52:00
4:52 PM,46.9,28.0,48,29.94,10.0,West,11.5,21.9,N/A,,Scattered Clouds,260,2013-02-11 21:52:00
5:52 PM,45.0,27.0,49,29.97,10.0,West,15.0,29.9,N/A,,Scattered Clouds,260,2013-02-11 22:52:00
6:52 PM,43.0,27.0,53,29.99,10.0,West,18.4,25.3,N/A,,Partly Cloudy,270,2013-02-11 23:52:00
7:52 PM,43.0,27.0,53,30.00,10.0,West,10.4,-,N/A,,Mostly Cloudy,260,2013-02-12 00:52:00
8:52 PM,42.1,25.0,51,30.03,10.0,West,11.5,19.6,N/A,,Partly Cloudy,260,2013-02-12 01:52:00
9:52 PM,39.9,26.1,58,30.04,10.0,WSW,10.4,-,N/A,,Partly Cloudy,250,2013-02-12 02:52:00
10:52 PM,39.0,27.0,62,30.05,10.0,WSW,8.1,-,N/A,,Partly Cloudy,250,2013-02-12 03:52:00
11:52 PM,37.9,26.1,62,30.06,10.0,WSW,6.9,-,N/A,,Partly Cloudy,240,2013-02-12 04:52:00